Location: Harbor Island
(32.3990°N, 80.4435°W)
Time: 01:28:01
(UTC-04:00)

Daily predictions for brighter satellites

Satellite Brightness Start Highest point End
(mag) Time Altitude Azimuth Time Altitude Azimuth Time Altitude Azimuth
Cosmos 2297 4.3 00:06:55 51° WNW 00:07:03 51° WNW 00:12:37 10° N
Mayak 1.3 00:07:30 10° NNE 00:08:13 14° NE 00:08:13 14° NE
Cosmos 2082 Rocket 2.6 00:10:14 10° NNW 00:14:50 59° NNW 00:14:50 59° NNW
Cosmos 1833 Rocket 3.2 00:10:54 10° NNW 00:15:19 56° NW 00:15:19 56° NW
CZ-2C R/B 3.7 00:16:15 10° N 00:21:06 39° WNW 00:21:06 39° WNW
Cosmos 1943 Rocket 4.1 00:30:13 19° ENE 00:30:13 19° ENE 00:32:03 10° NE
Cosmos 2074 Rocket 4.2 00:23:44 10° N 00:29:11 69° N 00:29:11 69° N
Terra 4.3 00:41:23 14° WNW 00:41:23 14° WNW 00:42:50 10° WNW
ADEOS Rocket 3.3 00:53:14 10° N 00:58:38 67° NNW 00:58:38 67° NNW
CENTAUR R/B 3.3 00:59:45 10° NW 01:07:22 59° W 01:07:22 59° W
Cosmos 2154 Rocket 4.5 01:10:38 10° NNW 01:15:42 56° NW 01:15:42 56° NW
Cosmos 2181 Rocket 4.4 01:18:53 59° NNE 01:18:53 59° NNE 01:23:51 10° N
USA 234 3.5 01:16:15 10° NE 01:21:30 60° NE 01:21:30 60° NE
Lacrosse 4 Rocket 4.2 01:35:25 14° NE 01:35:25 14° NE 01:36:08 10° NE
Cosmos 2341 Rocket 4.4 01:27:28 10° N 01:32:35 59° NNW 01:32:35 59° NNW
Cosmos 2369 Rocket 3.3 01:36:42 40° NNW 01:36:42 40° NNW 01:40:53 10° N
SL-8 Rocket 4.4 01:32:45 10° N 01:37:55 59° NNE 01:37:55 59° NNE
Cosmos 2218 Rocket 4.5 01:35:41 10° N 01:40:43 55° NE 01:40:43 55° NE
Mayak 1.7 01:44:23 10° NW 01:44:50 11° NW 01:44:50 11° NW
Meteor 2-3 Rocket 4.5 01:53:55 50° NNE 01:53:55 50° NNE 01:58:09 10° NNE
Cosmos 2366 rocket 4.3 02:01:30 10° N 02:06:25 60° NNW 02:06:25 60° NNW
Cosmos 1943 Rocket 3.6 02:11:43 28° NW 02:11:43 28° NW 02:15:46 10° N
Nadezhda 3 Rocket 4.3 02:16:03 61° ENE 02:16:03 61° ENE 02:21:42 10° NNE
CZ-2D R/B 4.1 02:13:12 10° NE 02:16:20 18° E 02:16:20 18° E
SL-16 R/B 4.3 02:21:30 17° ESE 02:24:19 24° ENE 02:29:04 10° NNE
ATLAS 5 CENTAUR R/B 3.8 02:26:36 42° E 02:26:36 42° E 02:36:44 10° NE
Resurs 1-4 Rocket 3.6 02:30:55 10° NE 02:35:00 28° E 02:35:00 28° E
Cosmos 841 Rocket 4.3 02:36:58 10° N 02:41:34 45° ENE 02:41:34 45° ENE
DASH 4.3 02:53:48 47° SE 02:53:48 47° SE 03:09:35 10° E
Meteor 2-6 Rocket 4.4 02:49:37 10° N 02:54:28 66° NE 02:54:28 66° NE
H-2A R/B 4.5 02:52:27 10° NE 02:54:24 23° ENE 02:54:24 23° ENE
Cosmos 2219 4.5 02:54:22 10° N 02:59:32 36° ENE 03:02:04 24° ESE
Okean 1-7 4.3 02:58:09 10° N 03:01:29 38° NE 03:01:29 38° NE
COSMOS 2455 3.3 02:57:11 10° NNW 03:03:06 56° ENE 03:04:51 42° ESE
Cosmos 1821 Rocket 3.9 03:00:36 10° N 03:06:58 84° W 03:07:09 82° SW
Lacrosse 4 Rocket 3.8 03:11:44 17° NW 03:11:44 17° NW 03:13:57 10° NNW
IRS-1D 3.8 03:12:35 10° NNE 03:17:29 58° E 03:17:29 58° E
AQUA 4.1 03:13:04 10° NNE 03:17:10 66° NNE 03:17:10 66° NNE
Cosmos 1354 Rocket 4.0 03:21:11 79° N 03:21:11 79° N 03:26:07 10° NNE
ATLAS CENTAUR R/B 2.6 03:24:32 37° NNE 03:24:32 37° NNE 03:26:59 10° NNE
Cosmos 44 4.0 03:25:57 42° NW 03:25:57 42° NW 03:30:04 10° NNE
Meteor 1-27 Rocket 3.8 03:21:06 10° N 03:27:00 83° E 03:27:54 66° SSE
Cosmos 1733 Rocket 4.3 03:26:54 33° E 03:27:05 33° E 03:30:59 10° NNE
Cosmos 44 Rocket 3.4 03:29:14 69° NNW 03:29:14 69° NNW 03:33:47 10° NNE
Cosmos 968 Rocket 3.7 03:28:35 58° ESE 03:28:56 59° ESE 03:34:07 10° NNE
Cosmos 2227 Rocket 4.1 03:25:35 10° N 03:30:23 28° ENE 03:35:09 10° ESE
IRS-1C 4.0 03:30:22 10° N 03:35:42 78° WNW 03:36:00 75° WSW
Cosmos 1656 4.0 03:34:57 49° SE 03:35:57 56° ESE 03:41:29 10° NNE
ADEOS II 3.8 03:35:21 10° NE 03:39:38 25° E 03:42:16 17° SE
Meteor 1-4 Rocket 4.1 03:46:08 29° NNW 03:46:08 29° NNW 03:48:15 10° N
Cosmos 389 Rocket 3.1 03:53:17 57° NNE 03:53:17 57° NNE 03:56:15 10° N
Milstar 3 Cent rocket 4.3 03:33:11 10° WSW 03:55:13 74° S 04:04:50 10° E
CZ-2D R/B 4.0 03:51:20 10° NNE 03:55:23 49° E 03:55:57 45° SE
CZ-2D R/B 2.6 03:52:01 10° N 03:57:02 43° WNW 03:57:40 42° W
Cosmos 540 Rocket 3.6 03:53:01 10° NNW 03:57:47 52° W 03:57:47 52° W
Helios 1A Rocket 3.7 03:55:02 10° NNE 03:58:54 43° E 03:59:42 38° SE
Delta 2 Rocket 3.6 03:58:55 50° NW 03:59:52 71° NNE 04:04:32 10° E
GPS 2-04 Rocket1 3.3 04:01:20 46° NW 04:02:10 56° N 04:06:15 10° ENE
ARIANE 5 R/B 2.4 03:57:18 10° N 04:02:16 67° WNW 04:03:07 56° SW
Cosmos 1605 Rocket 4.0 03:57:19 10° NNW 04:03:19 61° W 04:05:05 44° SSW
UNKNOWN OBJECT B 3.0 04:02:39 10° NNE 04:06:40 68° E 04:07:20 55° SSE
SL-16 R/B 2.8 04:06:35 41° SW 04:07:35 45° W 04:13:27 10° NNW
Resurs 1-4 Rocket 3.2 04:10:42 10° NNW 04:15:10 28° WNW 04:16:05 27° W
MOZ.5/SAFIR/RUBIN 5/SL-8 4.0 04:15:03 47° WSW 04:15:19 48° W 04:19:50 10° NNW
NOSS 3-1 (C) 4.3 04:07:44 10° NNW 04:15:39 78° ENE 04:24:17 10° SSE
Cosmos 1697 Rocket 2.7 04:13:34 37° S 04:15:53 79° ESE 04:21:34 10° NNE
ATLAS 2A CENTAUR R/B 3.6 04:08:13 23° WSW 04:17:48 61° S 04:24:46 10° E
Cosmos 2100 Rocket 4.2 04:12:00 10° N 04:18:11 68° E 04:24:23 10° SSE
SL-08 R/B 4.4 04:20:49 27° W 04:20:49 27° W 04:24:11 10° NW
PSLV R/B 3.8 04:23:31 40° ESE 04:23:31 40° ESE 04:25:34 10° ESE
NOSS 7 (D) 4.4 04:22:58 65° SSW 04:23:26 85° ESE 04:26:44 10° NNE
PSLV R/B 4.2 04:23:37 45° WSW 04:23:47 46° W 04:27:51 10° NNW
Cosmos 1812 2.9 04:22:01 10° NNW 04:25:45 49° W 04:25:51 49° W
Meteor 1-14 Rocket 4.3 04:25:39 34° SSW 04:28:08 66° W 04:33:55 10° N
Meteor 1-25 Rocket 4.2 04:26:32 34° SSW 04:28:53 65° W 04:34:23 10° N
Okean 3 3.4 04:25:35 10° N 04:29:48 84° E 04:32:16 24° S
Cosmos 1602 4.3 04:28:38 26° SSE 04:30:34 55° E 04:34:19 10° NNE
H-2A R/B 4.5 04:29:12 10° NW 04:30:59 13° WNW 04:30:59 13° WNW
Lacrosse 5 rocket 2.4 04:29:40 28° S 04:31:22 40° ESE 04:35:34 10° NE
SL-8 R/B 3.6 04:28:16 10° NW 04:33:03 64° SW 04:37:47 10° SE
Meteor 1-18 Rocket 4.3 04:27:26 10° N 04:33:04 78° E 04:38:36 10° S
Cosmos 1633 4.0 04:34:39 23° WNW 04:34:39 23° WNW 04:37:16 10° NNW
Cosmos 2123 Rocket 4.3 04:33:46 11° S 04:39:39 66° E 04:45:46 10° NNE
Meteor 2-12 Rocket 4.3 04:34:17 10° N 04:40:25 79° W 04:46:24 10° S
Sich 1 Rocket 3.8 04:38:01 19° S 04:41:10 67° E 04:45:33 10° NNE
Cosmos 2369 4.4 04:39:06 26° WSW 04:41:28 38° WNW 04:46:42 10° N
SL-16 R/B 4.4 04:38:39 10° SE 04:42:40 20° E 04:46:41 10° NE
Cosmos 2219 4.2 04:38:58 10° NW 04:43:24 24° W 04:43:53 24° WSW
Cosmos 1980 Rocket 2.3 04:39:54 21° S 04:43:40 76° ESE 04:49:17 10° NNE
BREEZE-M DEB (TANK) 4.0 04:43:39 15° SSE 04:44:00 16° SE 04:45:32 10° E
BREEZE-M DEB (TANK) 3.2 04:42:06 10° NW 04:45:16 77° SW 04:55:08 10° SE
COSMOS 2455 4.3 04:44:41 10° WNW 04:47:54 17° W 04:47:54 17° W
ADEOS 4.0 04:46:15 10° N 04:51:11 44° WNW 04:54:02 23° SW
USA 229 DEB 4.3 04:45:22 10° NW 04:51:56 37° WSW 04:58:36 10° S
USA 229 4.3 04:45:28 10° NW 04:52:03 37° WSW 04:58:44 10° S
NOSS 3-1 (A) 4.2 04:45:13 10° NNW 04:53:13 87° WSW 05:01:55 10° SSE
NOSS 2-1 (C) 3.2 04:51:38 26° SSW 04:53:31 71° ESE 04:57:12 10° NE
NOSS 2-1 (D) 3.1 04:52:58 26° SSW 04:54:52 76° ESE 04:58:34 10° NNE
Atlas Centaur 2 2.5 04:54:57 21° S 04:56:21 26° SSE 05:00:00 10° E
Cosmos 2173 Rocket 4.0 04:50:40 10° NNW 04:56:39 61° W 05:02:37 10° S
Cosmos 1378 Rocket 3.5 04:55:43 10° NNW 05:00:09 69° W 05:04:33 10° S
Cosmos 1782 Rocket 3.5 04:58:33 15° S 05:02:09 81° W 05:06:32 10° N
Cosmos 2297 Rocket 2.5 05:00:09 10° NW 05:05:29 45° WSW 05:10:48 10° S
ASTEX 1 3.8 05:02:11 15° SSW 05:06:04 45° W 05:10:52 10° NNW
Meteor 1-11 Rocket 4.0 05:00:38 10° S 05:06:06 70° E 05:11:40 10° NNE
USA 102 2.8 05:05:39 28° SSE 05:06:33 77° ENE 05:10:45 10° NNW
Cosmos 1538 Rocket 4.0 05:01:54 10° NNW 05:07:18 89° WSW 05:12:38 10° SSE
Iridium 96 3.6 05:11:01 10° N 05:13:50 72° W 05:16:06 12° S
Lacrosse 5 2.1 05:09:13 10° NW 05:14:17 73° NE 05:19:20 10° SE
Cosmos 2227 Rocket 2.9 05:09:22 10° NW 05:14:22 33° WSW 05:19:21 10° SSW
Cosmos 1271 Rocket 3.8 05:13:18 18° SW 05:15:29 30° WNW 05:18:58 10° NNW
Shenzhou-11 Module 4.1 05:16:01 10° WNW 05:18:20 20° NNW 05:20:39 10° NNE
ADEOS II 3.0 05:14:40 10° N 05:19:16 32° WNW 05:23:13 13° SW
Gbstr 26 Del rocket 4.2 05:17:40 12° W 05:20:35 27° NW 05:24:04 10° NNE
Aureole 2 Rocket 4.0 05:18:13 10° SSE 05:21:02 28° ESE 05:23:40 10° NE
Cosmos 1238 4.5 05:19:24 10° S 05:22:28 76° E 05:26:04 10° N
SL-19 R/B 4.0 05:22:10 10° S 05:25:30 67° WSW 05:29:23 10° NNW
Cosmos 2016 Rocket 4.3 05:19:41 10° NNW 05:25:48 50° W 05:31:50 10° SSW
Meteosat 1 Rocket2 3.4 05:21:25 12° WSW 05:25:56 49° S 05:29:42 10° ESE
NOSS 2-1 (E) 3.6 05:24:18 14° SW 05:27:11 46° WNW 05:30:51 10° NNE
PSLV R/B 4.0 05:23:25 10° NNE 05:27:32 80° ESE 05:31:39 10° S
Cosmos 2151 Rocket 4.3 05:24:07 10° S 05:28:28 55° E 05:32:47 10° NNE
Cosmos 1356 3.7 05:31:19 10° NNW 05:34:40 45° W 05:37:59 10° S
Meteor 1-28 Rocket 4.1 05:32:51 10° SSE 05:36:29 53° ENE 05:40:08 10° N
Cosmos 1340 Rocket 3.0 05:34:03 10° NNW 05:37:50 48° W 05:41:35 10° S
CZ-4B R/B 3.1 05:34:10 10° N 05:38:22 65° WNW 05:42:43 10° SSW
SJ 16-02 4.4 05:40:32 10° ESE 05:42:07 12° E 05:43:43 10° ENE
GPS 2-04 Rocket1 3.2 05:38:02 10° WNW 05:42:11 62° N 05:46:07 10° E
Delta 2 Rocket 4.0 05:38:06 10° W 05:42:21 44° SSW 05:47:09 10° SE
SL-24 R/B - RUBIN 2 4.3 05:38:51 10° NW 05:42:49 33° WSW 05:47:01 10° S
Cosmos 1975 Rocket 3.4 05:39:03 10° NNW 05:43:21 47° W 05:47:38 10° SSW
CZ-4B R/B 4.2 05:40:01 10° NNE 05:44:03 67° E 05:47:53 10° S
Meteor 1-31 Rocket 3.0 05:43:35 10° NNE 05:47:31 80° ESE 05:51:27 10° S
Cosmos 1536 3.3 05:44:58 10° SSW 05:48:52 45° W 05:52:47 10° N
Tiangong 2 1.1 05:46:45 10° SW 05:49:57 84° SSE 05:53:10 10° ENE
Meteor 1-5 Rocket 4.5 05:47:06 10° SSW 05:52:44 56° W 05:58:33 10° N
